Fort Polk, LA

5:05 AM CDT on July 24, 2017 (GMT -0500)
Fort Polk

Weather History for KAQV - September, 2013

Change the Weather History Date:

Sunday, September 1, 2013

  Actual Average (KPOE) Record (KPOE)
Temperature  
Mean Temperature 85 °F -  
Max Temperature 97 °F 88 °F 107 °F (2000)
Min Temperature 73 °F 69 °F 66 °F (2006)
Cooling Degree Days 20    
Growing Degree Days 35 (Base 50)    
Moisture  
Dew Point 69 °F    
Average Humidity 63    
Maximum Humidity 93    
Minimum Humidity 33    
Precipitation  
Precipitation 0.00 in - - ()
Sea Level Pressure  
Sea Level Pressure 29.87 in    
Wind  
Wind Speed 2 mph (WSW)    
Max Wind Speed 8 mph    
Max Gust Speed -    
Visibility 10 miles    
Events      
Averages and records for this station are not official NWS values.
T = Trace of Precipitation, MM = Missing Value Source: NWS Daily Summary

Daily Weather History Graph

Daily Weather History Graph

Search for Another Location

Airport or City:

Trip Planner

Search our weather history database for the weather conditions in past years. The results will help you decide how hot, cold, wet, or windy it might be!

Date:

Astronomy

Sep. 01, 2013 Rise Set
Actual Time 6:49 AM CDT 7:36 PM CDT
Civil Twilight 6:24 AM CDT 8:01 PM CDT
Nautical Twilight 5:55 AM CDT 8:30 PM CDT
Astronomical Twilight 5:25 AM CDT 8:59 PM CDT
Moon 3:20 AM CDT (9/1) 5:06 PM CDT (9/1)
Length of Visible Light 13h 36m
Length of Day
12h 47m
Waning Crescent, 13% of the Moon is Illuminated
Sep 1
Waning Crescent
Sep 5
New
Sep 12
First Quarter
Sep 19
Full
Sep 26
Last Quarter

Hourly Weather History & Observations

Time (CDT) Temp. Heat Index Dew Point Humidity Pressure Visibility Wind Dir Wind Speed Gust Speed Precip Events Conditions
12:56 AM 77.0 °F - 69.1 °F 76% 29.87 in 10.0 mi Calm Calm - N/A   Clear
1:56 AM 75.9 °F - 70.0 °F 82% 29.86 in 10.0 mi SSW 3.5 mph - N/A   Clear
2:56 AM 75.0 °F - 71.1 °F 87% 29.87 in 10.0 mi Calm Calm - N/A   Clear
3:56 AM 75.0 °F - 71.1 °F 87% 29.86 in 10.0 mi Calm Calm - N/A   Clear
4:56 AM 73.9 °F - 71.1 °F 91% 29.87 in 10.0 mi Calm Calm - N/A   Clear
5:56 AM 73.0 °F - 71.1 °F 93% 29.89 in 10.0 mi Calm Calm - N/A   Clear
6:56 AM 73.9 °F - 71.1 °F 91% 29.90 in 9.0 mi Calm Calm - N/A   Clear
7:56 AM 77.0 °F - 72.0 °F 84% 29.92 in 10.0 mi Calm Calm - N/A   Clear
8:56 AM 82.0 °F 86.7 °F 72.0 °F 71% 29.93 in 10.0 mi Variable 5.8 mph - N/A   Clear
9:56 AM 84.9 °F 90.7 °F 72.0 °F 65% 29.94 in 10.0 mi Variable 5.8 mph - N/A   Scattered Clouds
10:56 AM 88.0 °F 92.9 °F 70.0 °F 55% 29.93 in 10.0 mi Variable 6.9 mph - N/A   Clear
11:56 AM 91.0 °F 95.6 °F 69.1 °F 48% 29.91 in 10.0 mi West 6.9 mph - N/A   Clear
12:56 PM 93.0 °F 96.4 °F 66.9 °F 42% 29.90 in 10.0 mi Variable 6.9 mph - N/A   Scattered Clouds
1:56 PM 95.0 °F 97.9 °F 66.0 °F 38% 29.88 in 10.0 mi WSW 8.1 mph - N/A   Scattered Clouds
2:56 PM 95.0 °F 97.4 °F 64.9 °F 37% 29.86 in 10.0 mi Variable 4.6 mph - N/A   Partly Cloudy
3:56 PM 97.0 °F 99.3 °F 64.0 °F 34% 29.83 in 10.0 mi Variable 3.5 mph - N/A   Clear
4:56 PM 96.1 °F 97.3 °F 63.0 °F 33% 29.82 in 10.0 mi Variable 4.6 mph - N/A   Clear
5:56 PM 96.1 °F 98.3 °F 64.0 °F 35% 29.81 in 10.0 mi SW 5.8 mph - N/A   Scattered Clouds
6:56 PM 93.0 °F 94.6 °F 64.0 °F 38% 29.81 in 10.0 mi Variable 3.5 mph - N/A   Clear
7:56 PM 86.0 °F 88.2 °F 66.0 °F 51% 29.83 in 10.0 mi Calm Calm - N/A   Clear
8:56 PM 82.0 °F 84.5 °F 66.9 °F 60% 29.84 in 10.0 mi Calm Calm - N/A   Clear
9:56 PM 84.0 °F 87.8 °F 69.1 °F 61% 29.87 in 10.0 mi Variable 3.5 mph - N/A   Clear
10:56 PM 81.0 °F 84.4 °F 70.0 °F 69% 29.88 in 10.0 mi Calm Calm - N/A   Clear
11:56 PM 79.0 °F - 71.1 °F 77% 29.88 in 10.0 mi Variable 4.6 mph - N/A   Clear